This is the latest recevied weather packets stored in our database for station/object AD8BV. If no packets are shown the sender has not sent any weather packets the latest 10 day(s).
| Time | Temp. | Humidity | Pressure | Rain* | Wind** | Luminosity | Snow |
|---|---|---|---|---|---|---|---|
| 1778094589 | 12.22° C | 45% | 1014.4 hPa | 0 mm | - | 242 W/m² | - |
| 1778094286 | 12.78° C | 48% | 1014.2 hPa | 0 mm | - | 283 W/m² | - |
| 1778093983 | 12.22° C | 49% | 1014.3 hPa | 0 mm | - | 233 W/m² | - |
| 1778093680 | 12.78° C | 44% | 1014.2 hPa | 0 mm | - | 212 W/m² | - |
| 1778093377 | 12.22° C | 47% | 1014.4 hPa | 0 mm | - | 734 W/m² | - |
| 1778093073 | 12.78° C | 48% | 1014.4 hPa | 0 mm | - | 247 W/m² | - |
| 1778092771 | 11.67° C | 44% | 1014.5 hPa | 0 mm | - | 512 W/m² | - |
| 1778092466 | 11.67° C | 47% | 1014.4 hPa | 0 mm | - | 266 W/m² | - |
| 1778092164 | 11.11° C | 53% | 1014.1 hPa | 0 mm | - | 324 W/m² | - |
| 1778091861 | 11.67° C | 51% | 1014.3 hPa | 0 mm | - | 848 W/m² | - |
| 1778091558 | 11.67° C | 50% | 1014.5 hPa | 0 mm | - | 290 W/m² | - |
| 1778091256 | 11.11° C | 49% | 1014.3 hPa | 0 mm | - | 424 W/m² | - |
| 1778090952 | 11.11° C | 51% | 1014.2 hPa | 0 mm | - | 216 W/m² | - |
| 1778090649 | 11.11° C | 50% | 1014.3 hPa | 0 mm | - | 379 W/m² | - |
| 1778090346 | 10.56° C | 49% | 1014.2 hPa | 0 mm | - | 217 W/m² | - |
| 1778090043 | 11.11° C | 46% | 1014.3 hPa | 0 mm | - | 642 W/m² | - |
| 1778089740 | 11.11° C | 48% | 1014.3 hPa | 0 mm | - | 239 W/m² | - |
| 1778089437 | 10.56° C | 51% | 1014.7 hPa | 0 mm | - | 243 W/m² | - |
| 1778089134 | 10.56° C | 48% | 1014.3 hPa | 0 mm | - | 269 W/m² | - |
| 1778088831 | 10.56° C | 49% | 1014.7 hPa | 0 mm | - | 200 W/m² | - |
| 1778088528 | 11.11° C | 48% | 1014.7 hPa | 0 mm | - | 177 W/m² | - |
| 1778088224 | 11.67° C | 50% | 1014.6 hPa | 0 mm | - | 350 W/m² | - |
| 1778087922 | 11.67° C | 47% | 1014.7 hPa | 0 mm | - | 513 W/m² | - |
| 1778087619 | 11.11° C | 47% | 1014.8 hPa | 0 mm | - | 517 W/m² | - |
| 1778087316 | 10.56° C | 48% | 1014.9 hPa | 0 mm | - | 241 W/m² | - |
* Rain latest hour (hover to see other rain measurements)
** Current wind speed in m/s (hover to see current wind gust speed)